Weather History for KBQP - August, 2013

Change the Weather History Date:

Wednesday, August 7, 2013

  Actual Average (KMLU) Record (KMLU)
Temperature  
Mean Temperature 89 °F 83 °F  
Max Temperature 101 °F 95 °F 105 °F (1947)
Min Temperature 78 °F 72 °F 63 °F (2004)
Degree Days  
Heating Degree Days 0 0  
Month to date heating degree days 0  
Since 1 June heating degree days 0  
Since 1 July heating degree days 0  
Cooling Degree Days 24 18  
Month to date cooling degree days 126  
Year to date cooling degree days 1586  
Since 1 June cooling degree days 1151  
Growing Degree Days 39 (Base 50)    
Moisture  
Dew Point 72 °F    
Average Humidity 62    
Maximum Humidity 91    
Minimum Humidity 32    
Precipitation  
Precipitation 0.00 in 0.10 in 2.34 in (1985)
Month to date precipitation 0.68  
Year to date precipitation 32.98  
Snow  
Snow 0.00 in - - ()
Month to date snowfall  
Since 1 June snowfall  
Since 1 July snowfall  
Snow Depth -    
Sea Level Pressure  
Sea Level Pressure 29.91 in    
Wind  
Wind Speed 1 mph (SW)    
Max Wind Speed 8 mph    
Max Gust Speed -    
Visibility 9 miles    
Events      
T = Trace of Precipitation, MM = Missing Value Source: NWS Daily Summary

Daily Weather History Graph

Daily Weather History Graph

Search for Another Location

Airport or City:

Trip Planner

Search our weather history database for the weather conditions in past years. The results will help you decide how hot, cold, wet, or windy it might be!

Date:

Astronomy

Aug. 07, 2013 Rise Set
Actual Time 6:25 AM CDT 8:00 PM CDT
Civil Twilight 5:59 AM CDT 8:26 PM CDT
Nautical Twilight 5:27 AM CDT 8:58 PM CDT
Astronomical Twilight 4:53 AM CDT 9:31 PM CDT
Moon 7:08 AM CDT (8/7) 8:15 PM CDT (8/7)
Length of Visible Light 14h 27m
Length of Day
13h 34m
New Moon, 1% of the Moon is Illuminated
Aug 7
New Moon
Aug 14
First Quarter
Aug 20
Full
Aug 28
Last Quarter
Sep 5
New

Hourly Weather History & Observations

Time (CDT) Temp. Heat Index Dew Point Humidity Pressure Visibility Wind Dir Wind Speed Gust Speed Precip Events Conditions
12:15 AM 83.3 °F 88.4 °F 71.8 °F 68% 29.92 in 10.0 mi Calm Calm - N/A   Clear
12:35 AM 83.3 °F 88.7 °F 72.1 °F 69% 29.92 in 10.0 mi Calm Calm - N/A   Clear
12:55 AM 82.4 °F 87.7 °F 72.5 °F 72% 29.92 in 10.0 mi Calm Calm - N/A   Clear
1:15 AM 82.0 °F 87.2 °F 72.5 °F 73% 29.92 in 10.0 mi Calm Calm - N/A   Clear
1:35 AM 81.9 °F 87.0 °F 72.7 °F 74% 29.92 in 10.0 mi Calm Calm - N/A   Clear
1:55 AM 81.3 °F 86.1 °F 72.9 °F 75% 29.93 in 10.0 mi Calm Calm - N/A   Clear
2:15 AM 80.1 °F 84.2 °F 73.0 °F 79% 29.92 in 10.0 mi Calm Calm - N/A   Clear
2:35 AM 79.7 °F - 73.2 °F 80% 29.92 in 10.0 mi Calm Calm - N/A   Clear
2:55 AM 79.7 °F - 73.4 °F 81% 29.91 in 10.0 mi Calm Calm - N/A   Clear
3:15 AM 79.3 °F - 73.6 °F 82% 29.91 in 10.0 mi Calm Calm - N/A   Clear
3:35 AM 79.7 °F - 74.1 °F 83% 29.91 in 10.0 mi Calm Calm - N/A   Clear
3:55 AM 79.3 °F - 74.3 °F 84% 29.90 in 10.0 mi Calm Calm - N/A   Clear
4:15 AM 79.2 °F - 74.3 °F 85% 29.91 in 10.0 mi Calm Calm - N/A   Clear
4:35 AM 78.6 °F - 74.3 °F 87% 29.91 in 10.0 mi Calm Calm - N/A   Clear
4:55 AM 78.1 °F - 74.3 °F 88% 29.90 in 10.0 mi Calm Calm - N/A   Clear
5:15 AM 78.3 °F - 74.5 °F 88% 29.90 in 10.0 mi Calm Calm - N/A   Clear
5:35 AM 78.3 °F - 74.7 °F 89% 29.90 in 10.0 mi Calm Calm - N/A   Clear
5:55 AM 78.8 °F - 74.8 °F 88% 29.91 in 10.0 mi Calm Calm - N/A   Clear
6:15 AM 78.1 °F - 74.8 °F 90% 29.91 in 7.0 mi Calm Calm - N/A   Clear
6:35 AM 78.1 °F - 74.8 °F 90% 29.92 in 7.0 mi Calm Calm - N/A   Clear
6:55 AM 78.1 °F - 75.2 °F 91% 29.93 in 5.0 mi Calm Calm - N/A   Clear
7:15 AM 78.8 °F - 75.2 °F 89% 29.94 in 7.0 mi Calm Calm - N/A   Clear
7:35 AM 80.6 °F 86.4 °F 75.6 °F 85% 29.93 in 10.0 mi Calm Calm - N/A   Clear
7:55 AM 82.4 °F 89.8 °F 75.6 °F 80% 29.93 in 10.0 mi SW 3.5 mph - N/A   Clear
8:15 AM 84.2 °F 92.6 °F 75.4 °F 75% 29.94 in 10.0 mi SW 6.9 mph - N/A   Clear
8:35 AM 85.5 °F 93.8 °F 74.7 °F 70% 29.95 in 10.0 mi Calm Calm - N/A   Clear
8:55 AM 86.9 °F 95.0 °F 73.8 °F 65% 29.96 in 10.0 mi WSW 4.6 mph - N/A   Clear
9:15 AM 88.0 °F 96.0 °F 73.6 °F 62% 29.97 in 10.0 mi Calm Calm - N/A   Clear
9:35 AM 88.2 °F 95.5 °F 72.7 °F 60% 29.97 in 10.0 mi Calm Calm - N/A   Clear
9:55 AM 89.6 °F 97.2 °F 72.7 °F 57% 29.97 in 10.0 mi SW 4.6 mph - N/A   Clear
10:15 AM 90.0 °F 97.9 °F 72.7 °F 57% 29.97 in 10.0 mi SSW 8.1 mph - N/A   Clear
10:35 AM 90.9 °F 98.3 °F 72.3 °F 54% 29.97 in 10.0 mi SSW 8.1 mph - N/A   Clear
10:55 AM 92.5 °F 100.1 °F 72.0 °F 51% 29.97 in 10.0 mi Calm Calm - N/A   Clear
11:15 AM 93.2 °F 99.9 °F 71.1 °F 48% 29.97 in 10.0 mi WSW 6.9 mph - N/A   Clear
11:35 AM 93.6 °F 101.3 °F 72.0 °F 49% 29.96 in 7.0 mi Calm Calm - N/A   Clear
11:55 AM 94.5 °F 102.0 °F 71.4 °F 47% 29.96 in 7.0 mi Calm Calm - N/A   Clear
12:15 PM 94.8 °F 102.1 °F 70.9 °F 46% 29.95 in 10.0 mi Calm Calm - N/A   Clear
12:35 PM 95.2 °F 102.9 °F 71.4 °F 46% 29.94 in 10.0 mi Calm Calm - N/A   Clear
12:55 PM 96.1 °F 102.3 °F 69.8 °F 42% 29.94 in 7.0 mi Calm Calm - N/A   Clear
1:15 PM 97.0 °F 102.8 °F 68.7 °F 40% 29.94 in 10.0 mi Calm Calm - N/A   Clear
1:35 PM 97.9 °F 104.0 °F 69.1 °F 39% 29.93 in 7.0 mi Calm Calm - N/A   Clear
1:55 PM 99.1 °F 105.2 °F 68.5 °F 37% 29.92 in 7.0 mi Calm Calm - N/A   Clear
2:15 PM 99.0 °F 104.8 °F 68.2 °F 37% 29.92 in 7.0 mi West 3.5 mph - N/A   Clear
2:35 PM 99.9 °F 106.7 °F 69.1 °F 37% 29.91 in 10.0 mi Calm Calm - N/A   Clear
2:55 PM 99.5 °F 105.9 °F 68.9 °F 37% 29.91 in 10.0 mi Calm Calm - N/A   Clear
3:15 PM 97.2 °F 103.2 °F 68.9 °F 40% 29.91 in 10.0 mi Calm Calm - N/A   Scattered Clouds
3:35 PM 98.4 °F 103.8 °F 68.4 °F 37% 29.90 in 10.0 mi Calm Calm - N/A   Scattered Clouds
3:55 PM 100.2 °F 106.0 °F 68.0 °F 35% 29.90 in 10.0 mi Calm Calm - N/A   Mostly Cloudy
4:15 PM 100.4 °F 106.3 °F 67.8 °F 35% 29.89 in 7.0 mi Calm Calm - N/A   Scattered Clouds
4:35 PM 100.6 °F 104.6 °F 65.8 °F 32% 29.88 in 10.0 mi Calm Calm - N/A   Clear
4:55 PM 100.4 °F 104.9 °F 66.2 °F 33% 29.87 in 7.0 mi Calm Calm - N/A   Clear
5:15 PM 100.4 °F 104.9 °F 66.7 °F 33% 29.87 in 7.0 mi Calm Calm - N/A   Clear
5:35 PM 100.4 °F 106.3 °F 68.2 °F 35% 29.86 in 10.0 mi Calm Calm - N/A   Clear
5:55 PM 99.9 °F 106.7 °F 69.3 °F 37% 29.86 in 7.0 mi Calm Calm - N/A   Scattered Clouds
6:15 PM 99.0 °F 104.2 °F 67.5 °F 36% 29.86 in 10.0 mi Calm Calm - N/A   Clear
6:35 PM 98.2 °F 105.4 °F 69.8 °F 40% 29.86 in 10.0 mi Calm Calm - N/A   Clear
6:55 PM 97.2 °F 104.5 °F 70.7 °F 42% 29.86 in 10.0 mi Calm Calm - N/A   Clear
7:15 PM 94.1 °F 104.5 °F 74.3 °F 52% 29.85 in 10.0 mi Calm Calm - N/A   Clear
7:35 PM 90.7 °F 103.2 °F 76.5 °F 63% 29.86 in 10.0 mi Calm Calm - N/A   Clear
7:55 PM 88.2 °F 98.5 °F 75.4 °F 66% 29.86 in 10.0 mi Calm Calm - N/A   Clear
8:15 PM 86.4 °F 94.6 °F 74.3 °F 67% 29.86 in 10.0 mi Calm Calm - N/A   Clear
8:35 PM 86.7 °F 93.7 °F 72.9 °F 63% 29.87 in 10.0 mi Calm Calm - N/A   Clear
8:55 PM 85.3 °F 92.2 °F 73.4 °F 67% 29.87 in 10.0 mi Calm Calm - N/A   Clear
9:15 PM 86.0 °F 93.0 °F 73.0 °F 65% 29.88 in 10.0 mi Calm Calm - N/A   Clear
9:35 PM 85.3 °F 91.8 °F 72.7 °F 66% 29.88 in 10.0 mi Calm Calm - N/A   Clear
9:55 PM 84.6 °F 91.0 °F 72.9 °F 68% 29.89 in 10.0 mi Calm Calm - N/A   Clear
10:15 PM 84.6 °F 90.7 °F 72.5 °F 67% 29.90 in 10.0 mi Calm Calm - N/A   Clear
10:35 PM 85.5 °F 91.1 °F 71.8 °F 63% 29.91 in 10.0 mi Calm Calm - N/A   Clear
10:55 PM 84.7 °F 90.4 °F 71.6 °F 65% 29.91 in 10.0 mi Calm Calm - N/A   Clear
11:15 PM 84.6 °F 90.0 °F 71.4 °F 65% 29.91 in 10.0 mi Calm Calm - N/A   Clear
11:35 PM 84.2 °F 89.6 °F 71.6 °F 66% 29.91 in 10.0 mi Calm Calm - N/A   Clear
11:55 PM 83.7 °F 88.9 °F 71.6 °F 67% 29.91 in 10.0 mi Calm Calm - N/A   Clear